GEFSMA_prec_meanprecacc_096.txt.gz
Total_Precipitation_Accumulation
1.11 0.98 0.92 1.09 1.04 1.02 1.03 1.03 0.98 0.85 0.72 0.58 0.55 0.51 0.53 0.49 0.44 0.35 0.47 0.47 0.56 0.68 0.73 0.60 0.45 0.31 0.26 0.29 0.40 0.52 0.58 0.59 0.73 0.80 0.79 0.78 0.73 0.60 0.44 0.28 0.22 0.16 0.14
1.00 1.00 0.86 0.91 0.98 1.08 1.23 1.22 1.04 0.93 0.83 0.70 0.68 0.64 0.62 0.56 0.52 0.39 0.43 0.45 0.39 0.43 0.53 0.63 0.57 0.43 0.34 0.33 0.41 0.52 0.58 0.57 0.61 0.70 0.81 0.90 0.89 0.72 0.47 0.29 0.25 0.22 0.20
0.84 0.97 0.94 0.90 0.91 1.09 1.24 1.31 1.20 1.09 0.91 0.79 0.74 0.71 0.62 0.62 0.62 0.49 0.45 0.46 0.37 0.33 0.41 0.58 0.67 0.60 0.48 0.45 0.48 0.53 0.56 0.54 0.53 0.59 0.68 0.74 0.72 0.66 0.52 0.42 0.36 0.34 0.33
0.91 1.02 1.05 0.95 0.94 1.11 1.26 1.34 1.38 1.31 1.15 1.01 0.89 0.78 0.69 0.73 0.70 0.57 0.55 0.53 0.51 0.41 0.42 0.44 0.57 0.68 0.66 0.61 0.55 0.49 0.46 0.42 0.40 0.41 0.45 0.47 0.49 0.49 0.46 0.45 0.47 0.50 0.49
0.91 1.03 1.17 1.18 1.17 1.23 1.26 1.27 1.28 1.21 1.15 1.08 0.97 0.90 0.80 0.77 0.74 0.63 0.61 0.64 0.64 0.57 0.50 0.34 0.34 0.35 0.48 0.61 0.57 0.49 0.47 0.38 0.32 0.30 0.30 0.30 0.32 0.35 0.37 0.40 0.43 0.48 0.50
1.14 1.09 1.18 1.20 1.23 1.33 1.32 1.41 1.50 1.33 1.15 1.16 1.12 1.02 0.89 0.78 0.69 0.66 0.70 0.73 0.69 0.61 0.59 0.45 0.35 0.22 0.28 0.46 0.55 0.52 0.50 0.45 0.39 0.34 0.29 0.24 0.23 0.24 0.27 0.32 0.32 0.35 0.38
1.28 1.29 1.28 1.25 1.24 1.27 1.30 1.46 1.68 1.56 1.35 1.24 1.29 1.17 0.98 0.81 0.71 0.69 0.66 0.72 0.73 0.66 0.66 0.69 0.52 0.35 0.22 0.22 0.26 0.38 0.46 0.54 0.53 0.45 0.39 0.31 0.23 0.20 0.21 0.23 0.26 0.28 0.28
1.25 1.17 1.30 1.38 1.32 1.37 1.44 1.57 1.71 1.76 1.57 1.40 1.52 1.71 1.40 1.10 0.78 0.67 0.65 0.60 0.68 0.70 0.63 0.61 0.58 0.48 0.34 0.28 0.16 0.21 0.28 0.42 0.51 0.49 0.47 0.40 0.32 0.22 0.19 0.19 0.21 0.25 0.27
1.49 1.41 1.47 1.59 1.50 1.50 1.53 1.57 1.60 1.86 1.88 1.68 1.66 1.95 1.62 1.40 1.30 0.83 0.61 0.57 0.68 0.73 0.70 0.65 0.58 0.60 0.57 0.46 0.34 0.20 0.15 0.20 0.36 0.46 0.50 0.48 0.38 0.30 0.24 0.21 0.22 0.25 0.27
1.69 1.58 1.58 1.61 1.62 1.66 1.56 1.46 1.59 1.87 2.16 2.09 1.94 1.74 1.50 1.34 1.46 1.26 0.86 0.64 0.68 0.71 0.75 0.70 0.64 0.66 0.68 0.64 0.55 0.37 0.19 0.13 0.25 0.41 0.50 0.52 0.45 0.33 0.28 0.25 0.25 0.26 0.28
1.70 1.56 1.51 1.53 1.59 1.67 1.64 1.66 1.81 2.03 2.22 2.34 2.26 1.99 1.67 1.41 1.11 1.16 1.17 1.00 0.80 0.64 0.63 0.73 0.80 0.73 0.69 0.66 0.67 0.59 0.32 0.16 0.18 0.35 0.51 0.61 0.56 0.43 0.33 0.29 0.26 0.26 0.24
1.53 1.50 1.49 1.44 1.39 1.45 1.54 1.68 1.90 2.00 2.14 2.30 2.29 2.01 1.77 1.56 1.36 1.26 1.11 1.13 1.13 0.86 0.70 0.69 0.73 0.74 0.71 0.71 0.70 0.78 0.57 0.29 0.17 0.23 0.37 0.55 0.64 0.62 0.51 0.42 0.36 0.34 0.28
1.33 1.35 1.37 1.31 1.20 1.19 1.30 1.46 1.65 1.69 1.79 1.96 2.00 1.89 1.78 1.59 1.49 1.51 1.42 1.29 1.19 0.89 0.76 0.67 0.64 0.67 0.67 0.70 0.82 0.90 0.71 0.52 0.30 0.21 0.24 0.31 0.43 0.56 0.67 0.67 0.62 0.55 0.47
1.17 1.10 1.13 1.14 1.11 1.09 1.11 1.19 1.28 1.34 1.43 1.60 1.66 1.66 1.56 1.54 1.57 1.49 1.42 1.49 1.34 1.09 0.80 0.56 0.53 0.60 0.61 0.64 0.83 0.90 0.61 0.57 0.45 0.30 0.24 0.23 0.25 0.32 0.46 0.58 0.71 0.82 0.79
0.94 0.90 0.96 1.05 1.12 1.03 0.97 1.03 1.07 1.10 1.21 1.30 1.43 1.57 1.54 1.51 1.54 1.55 1.52 1.49 1.43 1.26 1.01 0.68 0.56 0.52 0.58 0.63 0.85 0.78 0.63 0.60 0.52 0.42 0.31 0.24 0.20 0.19 0.26 0.33 0.42 0.51 0.59
0.85 0.85 0.88 0.89 0.90 0.88 0.91 0.99 1.07 1.14 1.14 1.17 1.28 1.42 1.50 1.57 1.64 1.61 1.58 1.58 1.47 1.33 1.20 0.89 0.69 0.57 0.62 0.60 0.72 0.61 0.68 0.80 0.63 0.48 0.37 0.30 0.25 0.23 0.22 0.24 0.24 0.22 0.24
0.66 0.68 0.66 0.70 0.81 0.80 0.80 0.88 0.93 0.95 1.02 1.11 1.16 1.17 1.31 1.47 1.57 1.62 1.62 1.60 1.57 1.45 1.23 1.07 0.85 0.69 0.70 0.70 0.73 0.63 0.68 0.73 0.66 0.59 0.50 0.40 0.33 0.30 0.25 0.23 0.22 0.17 0.15
0.44 0.51 0.55 0.54 0.70 0.86 0.88 0.90 0.91 0.86 0.89 0.92 0.97 1.03 1.13 1.19 1.28 1.42 1.54 1.52 1.55 1.55 1.39 1.23 1.04 0.87 0.79 0.76 0.85 0.87 0.83 0.79 0.78 0.87 0.82 0.66 0.51 0.42 0.34 0.28 0.24 0.20 0.17
0.33 0.38 0.51 0.50 0.54 0.71 0.83 0.83 0.78 0.76 0.79 0.81 0.85 0.89 0.95 1.05 1.16 1.20 1.29 1.39 1.44 1.46 1.46 1.33 1.25 1.14 0.99 0.88 0.89 0.88 0.94 1.04 1.01 1.04 1.12 0.94 0.74 0.60 0.49 0.41 0.34 0.26 0.22
0.36 0.35 0.35 0.37 0.43 0.53 0.65 0.66 0.64 0.64 0.63 0.67 0.79 0.87 0.92 0.96 1.02 1.09 1.13 1.24 1.35 1.40 1.38 1.30 1.25 1.20 1.12 1.07 1.04 1.00 1.06 1.17 1.22 1.13 1.16 1.12 1.03 0.90 0.73 0.61 0.49 0.40 0.33
0.22 0.24 0.21 0.22 0.27 0.34 0.39 0.40 0.47 0.52 0.58 0.63 0.73 0.79 0.82 0.78 0.82 0.90 0.89 1.03 1.17 1.31 1.32 1.34 1.26 1.18 1.12 1.08 1.05 1.04 1.10 1.26 1.33 1.34 1.32 1.24 1.16 1.00 0.85 0.74 0.61 0.52 0.48
0.09 0.14 0.14 0.16 0.20 0.22 0.26 0.24 0.29 0.42 0.53 0.60 0.66 0.71 0.78 0.80 0.76 0.72 0.72 0.78 0.90 0.99 1.10 1.19 1.21 1.15 1.10 1.07 1.12 1.19 1.18 1.24 1.37 1.33 1.21 1.31 1.26 1.16 0.99 0.81 0.79 0.75 0.64
0.06 0.08 0.08 0.13 0.17 0.13 0.15 0.14 0.24 0.45 0.51 0.53 0.52 0.64 0.76 0.83 0.85 0.87 0.76 0.75 0.76 0.78 0.83 0.97 1.06 1.07 1.07 1.08 1.08 1.16 1.22 1.23 1.15 1.20 1.14 1.23 1.25 1.15 1.01 0.93 0.95 0.86 0.79
0.03 0.07 0.08 0.14 0.14 0.09 0.10 0.13 0.19 0.36 0.45 0.43 0.45 0.55 0.71 0.82 0.86 0.87 0.82 0.89 0.87 0.76 0.72 0.77 0.94 1.00 1.00 1.10 1.17 1.24 1.32 1.30 1.28 1.25 1.14 1.15 1.12 1.02 0.95 0.94 1.00 0.89 0.80
0.02 0.05 0.09 0.10 0.07 0.04 0.06 0.10 0.18 0.35 0.44 0.44 0.41 0.49 0.65 0.75 0.84 0.85 0.82 0.92 0.94 0.76 0.68 0.75 0.78 0.83 0.91 1.01 1.16 1.25 1.31 1.29 1.28 1.28 1.12 0.98 0.96 0.99 1.00 0.94 0.92 0.90 0.82
0.01 0.02 0.04 0.06 0.05 0.06 0.05 0.05 0.12 0.23 0.32 0.40 0.41 0.46 0.66 0.72 0.75 0.71 0.73 0.94 1.04 0.91 0.67 0.64 0.70 0.80 0.86 0.99 1.19 1.30 1.45 1.40 1.22 1.20 1.10 0.97 0.95 1.02 1.13 1.06 0.89 0.81 0.77

GEFSMA_prec_meanprecacc_102.txt.gz
Total_Precipitation_Accumulation
1.11 0.98 0.92 1.09 1.04 1.02 1.03 1.04 0.99 0.86 0.73 0.59 0.56 0.53 0.55 0.51 0.47 0.39 0.52 0.53 0.66 0.84 0.89 0.76 0.59 0.45 0.42 0.42 0.51 0.62 0.67 0.65 0.76 0.82 0.81 0.81 0.75 0.62 0.46 0.30 0.23 0.17 0.15
1.00 1.00 0.86 0.91 0.98 1.08 1.23 1.22 1.05 0.95 0.84 0.71 0.70 0.68 0.65 0.60 0.56 0.42 0.48 0.51 0.47 0.52 0.64 0.76 0.72 0.60 0.54 0.50 0.53 0.62 0.66 0.62 0.65 0.73 0.83 0.93 0.92 0.75 0.49 0.31 0.27 0.23 0.21
0.84 0.97 0.94 0.90 0.91 1.09 1.25 1.32 1.21 1.10 0.91 0.81 0.76 0.74 0.66 0.67 0.66 0.52 0.49 0.52 0.45 0.39 0.49 0.68 0.79 0.76 0.67 0.63 0.63 0.66 0.66 0.61 0.59 0.63 0.72 0.76 0.75 0.69 0.55 0.44 0.38 0.36 0.34
0.91 1.03 1.05 0.96 0.95 1.11 1.26 1.35 1.38 1.32 1.16 1.03 0.91 0.80 0.74 0.79 0.75 0.61 0.58 0.59 0.59 0.48 0.48 0.50 0.64 0.79 0.82 0.79 0.71 0.62 0.57 0.51 0.47 0.47 0.50 0.49 0.51 0.52 0.49 0.47 0.49 0.52 0.51
0.91 1.04 1.18 1.18 1.17 1.23 1.27 1.28 1.30 1.23 1.16 1.10 0.99 0.93 0.84 0.83 0.80 0.68 0.65 0.70 0.72 0.66 0.57 0.39 0.39 0.41 0.59 0.75 0.71 0.62 0.58 0.48 0.41 0.36 0.35 0.34 0.34 0.38 0.40 0.43 0.47 0.52 0.53
1.14 1.09 1.19 1.21 1.23 1.33 1.33 1.43 1.51 1.35 1.17 1.19 1.17 1.06 0.93 0.84 0.75 0.72 0.75 0.79 0.77 0.71 0.67 0.51 0.40 0.26 0.34 0.55 0.65 0.64 0.64 0.59 0.50 0.41 0.34 0.29 0.27 0.27 0.30 0.34 0.35 0.38 0.42
1.28 1.29 1.28 1.25 1.25 1.27 1.31 1.47 1.69 1.57 1.37 1.26 1.34 1.22 1.04 0.88 0.77 0.75 0.73 0.80 0.81 0.77 0.77 0.77 0.58 0.40 0.26 0.28 0.34 0.48 0.57 0.67 0.67 0.56 0.47 0.36 0.28 0.24 0.25 0.26 0.29 0.32 0.33
1.25 1.17 1.30 1.39 1.32 1.38 1.45 1.58 1.72 1.76 1.58 1.42 1.57 1.77 1.45 1.16 0.87 0.77 0.73 0.70 0.78 0.80 0.74 0.69 0.63 0.53 0.38 0.31 0.20 0.28 0.37 0.52 0.64 0.63 0.58 0.49 0.38 0.28 0.25 0.25 0.26 0.31 0.33
1.49 1.41 1.47 1.60 1.51 1.51 1.54 1.58 1.60 1.86 1.89 1.70 1.70 2.02 1.68 1.45 1.40 0.98 0.74 0.67 0.79 0.84 0.80 0.74 0.65 0.66 0.64 0.49 0.37 0.23 0.22 0.28 0.47 0.60 0.64 0.62 0.50 0.38 0.29 0.26 0.29 0.32 0.34
1.70 1.58 1.58 1.61 1.63 1.67 1.57 1.47 1.59 1.88 2.18 2.11 1.97 1.80 1.56 1.38 1.54 1.39 0.96 0.72 0.76 0.79 0.84 0.77 0.71 0.73 0.74 0.70 0.61 0.41 0.23 0.18 0.33 0.52 0.63 0.67 0.60 0.45 0.38 0.32 0.32 0.33 0.35
1.71 1.56 1.51 1.54 1.60 1.68 1.65 1.68 1.81 2.05 2.25 2.37 2.29 2.03 1.72 1.46 1.17 1.24 1.24 1.06 0.85 0.70 0.69 0.78 0.86 0.80 0.75 0.71 0.73 0.66 0.37 0.19 0.22 0.43 0.63 0.76 0.72 0.56 0.47 0.41 0.35 0.33 0.32
1.54 1.50 1.49 1.44 1.39 1.45 1.55 1.69 1.92 2.02 2.16 2.32 2.31 2.03 1.80 1.61 1.40 1.29 1.15 1.18 1.18 0.91 0.74 0.74 0.79 0.79 0.77 0.75 0.74 0.83 0.63 0.35 0.22 0.28 0.44 0.66 0.76 0.72 0.62 0.54 0.50 0.47 0.40
1.33 1.35 1.37 1.31 1.20 1.19 1.30 1.47 1.66 1.71 1.80 1.97 2.02 1.91 1.79 1.62 1.52 1.53 1.44 1.33 1.23 0.93 0.78 0.69 0.67 0.71 0.72 0.75 0.86 0.94 0.75 0.57 0.34 0.25 0.28 0.37 0.50 0.66 0.77 0.78 0.75 0.69 0.62
1.17 1.10 1.13 1.14 1.11 1.09 1.11 1.19 1.29 1.35 1.45 1.61 1.67 1.68 1.58 1.55 1.59 1.51 1.45 1.52 1.37 1.11 0.82 0.58 0.55 0.62 0.64 0.68 0.88 0.95 0.65 0.60 0.48 0.34 0.27 0.26 0.29 0.38 0.53 0.67 0.81 0.93 0.91
0.94 0.90 0.97 1.06 1.12 1.04 0.97 1.03 1.07 1.11 1.22 1.31 1.44 1.59 1.56 1.52 1.56 1.57 1.54 1.51 1.45 1.28 1.03 0.69 0.57 0.53 0.60 0.65 0.88 0.80 0.66 0.65 0.57 0.46 0.35 0.26 0.22 0.23 0.30 0.38 0.48 0.58 0.67
0.85 0.85 0.88 0.89 0.90 0.88 0.91 0.99 1.07 1.15 1.14 1.17 1.28 1.43 1.52 1.57 1.65 1.62 1.60 1.59 1.49 1.35 1.21 0.90 0.70 0.58 0.65 0.62 0.75 0.64 0.71 0.83 0.66 0.51 0.41 0.33 0.28 0.25 0.24 0.26 0.27 0.26 0.28
0.66 0.68 0.66 0.70 0.81 0.80 0.80 0.88 0.94 0.95 1.02 1.12 1.17 1.18 1.32 1.48 1.58 1.62 1.63 1.61 1.58 1.47 1.25 1.09 0.86 0.69 0.72 0.72 0.75 0.66 0.70 0.74 0.67 0.61 0.52 0.43 0.36 0.33 0.27 0.24 0.24 0.19 0.18
0.44 0.51 0.55 0.54 0.70 0.86 0.88 0.91 0.91 0.86 0.89 0.94 0.99 1.05 1.15 1.20 1.29 1.43 1.55 1.54 1.57 1.57 1.41 1.26 1.07 0.88 0.81 0.78 0.87 0.89 0.86 0.83 0.81 0.89 0.84 0.67 0.53 0.45 0.37 0.30 0.26 0.22 0.19
0.33 0.38 0.51 0.50 0.54 0.71 0.83 0.83 0.78 0.77 0.79 0.81 0.85 0.89 0.95 1.05 1.16 1.21 1.30 1.40 1.46 1.48 1.48 1.35 1.28 1.16 1.01 0.89 0.90 0.89 0.96 1.07 1.04 1.06 1.13 0.95 0.75 0.61 0.52 0.44 0.37 0.29 0.24
0.36 0.35 0.35 0.37 0.43 0.53 0.65 0.66 0.64 0.64 0.64 0.68 0.79 0.87 0.93 0.97 1.04 1.11 1.14 1.26 1.36 1.42 1.39 1.32 1.27 1.22 1.14 1.09 1.05 1.01 1.08 1.19 1.25 1.16 1.18 1.13 1.05 0.92 0.75 0.63 0.52 0.43 0.37
0.22 0.24 0.21 0.22 0.27 0.34 0.39 0.40 0.47 0.52 0.58 0.64 0.74 0.80 0.83 0.79 0.83 0.91 0.90 1.04 1.18 1.31 1.33 1.35 1.28 1.19 1.13 1.10 1.06 1.06 1.11 1.27 1.34 1.36 1.35 1.26 1.18 1.03 0.88 0.76 0.64 0.55 0.51
0.09 0.14 0.14 0.16 0.20 0.22 0.26 0.24 0.29 0.42 0.53 0.60 0.66 0.71 0.79 0.81 0.77 0.72 0.72 0.79 0.90 1.00 1.11 1.20 1.23 1.16 1.11 1.08 1.13 1.20 1.19 1.26 1.39 1.34 1.22 1.32 1.28 1.18 1.02 0.83 0.81 0.77 0.66
0.06 0.08 0.08 0.13 0.17 0.13 0.15 0.14 0.24 0.45 0.51 0.53 0.52 0.65 0.77 0.83 0.85 0.87 0.76 0.75 0.76 0.79 0.84 0.98 1.07 1.08 1.08 1.08 1.09 1.17 1.23 1.24 1.17 1.22 1.15 1.24 1.26 1.16 1.02 0.94 0.96 0.87 0.80
0.03 0.07 0.08 0.14 0.14 0.09 0.10 0.13 0.19 0.36 0.45 0.43 0.45 0.55 0.71 0.82 0.86 0.87 0.82 0.89 0.87 0.77 0.73 0.78 0.94 1.00 1.00 1.11 1.18 1.25 1.33 1.30 1.28 1.27 1.15 1.16 1.13 1.03 0.96 0.95 1.01 0.89 0.81
0.02 0.05 0.09 0.10 0.07 0.04 0.06 0.10 0.18 0.35 0.44 0.44 0.41 0.49 0.65 0.75 0.84 0.85 0.82 0.92 0.94 0.76 0.68 0.76 0.78 0.84 0.91 1.02 1.17 1.26 1.31 1.29 1.29 1.30 1.13 0.99 0.97 0.99 1.01 0.95 0.93 0.91 0.83
0.01 0.02 0.04 0.06 0.05 0.06 0.05 0.05 0.12 0.23 0.32 0.40 0.41 0.46 0.66 0.72 0.75 0.71 0.73 0.94 1.04 0.91 0.67 0.65 0.70 0.80 0.87 0.99 1.19 1.30 1.45 1.40 1.22 1.21 1.12 0.99 0.98 1.05 1.15 1.07 0.91 0.82 0.77

GEFSMA_prec_meanprecacc_108.txt.gz
Total_Precipitation_Accumulation
1.11 0.98 0.92 1.09 1.05 1.03 1.04 1.04 1.00 0.88 0.75 0.60 0.58 0.55 0.57 0.54 0.50 0.44 0.58 0.57 0.69 0.90 0.97 0.86 0.70 0.59 0.56 0.56 0.65 0.76 0.80 0.75 0.84 0.89 0.87 0.85 0.80 0.66 0.51 0.34 0.26 0.18 0.16
1.00 1.00 0.86 0.92 0.98 1.08 1.24 1.23 1.05 0.96 0.86 0.73 0.72 0.70 0.67 0.62 0.59 0.47 0.55 0.57 0.50 0.57 0.72 0.87 0.85 0.76 0.70 0.64 0.67 0.76 0.78 0.71 0.72 0.80 0.90 0.98 0.97 0.79 0.55 0.35 0.29 0.25 0.22
0.84 0.97 0.94 0.90 0.91 1.09 1.25 1.33 1.22 1.12 0.93 0.83 0.79 0.77 0.69 0.69 0.68 0.55 0.54 0.58 0.50 0.44 0.55 0.77 0.89 0.89 0.80 0.77 0.75 0.82 0.80 0.72 0.68 0.71 0.79 0.82 0.80 0.73 0.59 0.49 0.41 0.38 0.36
0.91 1.03 1.05 0.96 0.95 1.12 1.27 1.36 1.39 1.35 1.20 1.07 0.95 0.84 0.77 0.83 0.78 0.64 0.62 0.64 0.65 0.54 0.54 0.57 0.72 0.88 0.93 0.91 0.83 0.76 0.72 0.63 0.56 0.53 0.56 0.56 0.57 0.57 0.53 0.52 0.53 0.56 0.54
0.91 1.05 1.19 1.19 1.18 1.24 1.28 1.29 1.31 1.25 1.21 1.16 1.04 0.97 0.87 0.87 0.85 0.72 0.70 0.76 0.79 0.74 0.63 0.46 0.47 0.50 0.69 0.87 0.84 0.75 0.72 0.61 0.50 0.42 0.42 0.40 0.40 0.43 0.45 0.50 0.53 0.58 0.57
1.14 1.10 1.20 1.22 1.24 1.35 1.35 1.45 1.53 1.37 1.22 1.25 1.22 1.10 0.97 0.88 0.80 0.77 0.81 0.86 0.85 0.79 0.74 0.59 0.51 0.36 0.43 0.63 0.75 0.76 0.78 0.71 0.60 0.47 0.40 0.35 0.33 0.33 0.36 0.40 0.42 0.44 0.48
1.28 1.29 1.29 1.27 1.26 1.29 1.33 1.49 1.71 1.59 1.40 1.31 1.42 1.32 1.10 0.93 0.82 0.81 0.80 0.88 0.90 0.85 0.86 0.88 0.69 0.51 0.36 0.35 0.41 0.57 0.69 0.79 0.78 0.66 0.54 0.44 0.35 0.31 0.31 0.32 0.34 0.36 0.38
1.25 1.18 1.32 1.40 1.34 1.40 1.46 1.60 1.75 1.80 1.62 1.46 1.64 1.88 1.55 1.23 0.91 0.82 0.80 0.78 0.87 0.91 0.85 0.80 0.73 0.65 0.49 0.41 0.29 0.34 0.45 0.61 0.75 0.75 0.69 0.57 0.44 0.33 0.32 0.31 0.31 0.36 0.39
1.49 1.42 1.48 1.61 1.52 1.52 1.56 1.60 1.62 1.90 1.95 1.76 1.76 2.11 1.78 1.54 1.46 1.03 0.80 0.73 0.88 0.96 0.91 0.84 0.73 0.77 0.76 0.61 0.47 0.29 0.26 0.33 0.55 0.72 0.77 0.73 0.59 0.44 0.34 0.32 0.33 0.36 0.40
1.70 1.58 1.58 1.62 1.63 1.67 1.59 1.49 1.61 1.91 2.23 2.16 2.02 1.85 1.61 1.45 1.62 1.48 1.03 0.79 0.83 0.90 0.94 0.85 0.77 0.80 0.84 0.82 0.72 0.47 0.26 0.22 0.40 0.64 0.78 0.80 0.71 0.56 0.45 0.38 0.37 0.37 0.39
1.71 1.56 1.51 1.54 1.60 1.68 1.67 1.71 1.83 2.08 2.29 2.42 2.33 2.07 1.76 1.52 1.24 1.33 1.32 1.13 0.93 0.80 0.77 0.85 0.93 0.87 0.82 0.78 0.82 0.72 0.41 0.22 0.26 0.53 0.77 0.90 0.84 0.67 0.57 0.50 0.42 0.39 0.38
1.54 1.51 1.49 1.45 1.39 1.46 1.56 1.71 1.94 2.05 2.19 2.36 2.35 2.08 1.87 1.69 1.48 1.37 1.25 1.27 1.26 0.99 0.80 0.79 0.84 0.86 0.84 0.82 0.80 0.87 0.65 0.37 0.24 0.31 0.51 0.78 0.88 0.83 0.71 0.64 0.59 0.54 0.47
1.34 1.36 1.37 1.31 1.21 1.20 1.31 1.48 1.68 1.72 1.83 1.99 2.05 1.94 1.84 1.68 1.60 1.61 1.54 1.43 1.31 1.00 0.83 0.73 0.71 0.76 0.76 0.81 0.91 0.97 0.78 0.59 0.37 0.27 0.30 0.41 0.58 0.75 0.86 0.88 0.85 0.80 0.72
1.17 1.11 1.14 1.14 1.11 1.09 1.11 1.20 1.30 1.36 1.45 1.63 1.69 1.71 1.61 1.58 1.63 1.57 1.53 1.61 1.46 1.19 0.87 0.61 0.58 0.66 0.67 0.71 0.92 0.97 0.67 0.63 0.50 0.36 0.29 0.29 0.33 0.44 0.60 0.75 0.90 1.03 1.01
0.94 0.90 0.97 1.06 1.12 1.04 0.97 1.03 1.08 1.12 1.23 1.33 1.46 1.61 1.59 1.54 1.58 1.62 1.61 1.60 1.55 1.37 1.09 0.73 0.60 0.56 0.62 0.66 0.90 0.82 0.68 0.67 0.59 0.49 0.37 0.28 0.24 0.25 0.34 0.44 0.55 0.65 0.73
0.85 0.85 0.88 0.89 0.90 0.88 0.91 0.99 1.07 1.16 1.15 1.19 1.31 1.45 1.55 1.60 1.66 1.65 1.65 1.65 1.56 1.43 1.27 0.94 0.73 0.61 0.67 0.64 0.77 0.66 0.73 0.86 0.68 0.54 0.44 0.35 0.30 0.27 0.27 0.30 0.30 0.29 0.31
0.66 0.68 0.66 0.70 0.81 0.80 0.80 0.88 0.94 0.96 1.03 1.13 1.18 1.20 1.35 1.50 1.60 1.65 1.67 1.66 1.63 1.52 1.30 1.12 0.88 0.72 0.74 0.75 0.78 0.68 0.73 0.78 0.70 0.63 0.54 0.44 0.38 0.36 0.30 0.28 0.27 0.21 0.19
0.44 0.51 0.55 0.54 0.70 0.86 0.88 0.91 0.92 0.87 0.91 0.96 1.01 1.08 1.19 1.23 1.32 1.46 1.57 1.57 1.61 1.60 1.45 1.31 1.09 0.91 0.83 0.80 0.90 0.91 0.89 0.87 0.85 0.92 0.86 0.68 0.55 0.49 0.41 0.34 0.29 0.25 0.21
0.33 0.38 0.51 0.50 0.54 0.71 0.83 0.83 0.78 0.77 0.80 0.83 0.87 0.92 0.98 1.08 1.19 1.22 1.32 1.42 1.48 1.50 1.51 1.39 1.31 1.19 1.03 0.92 0.92 0.91 0.98 1.11 1.09 1.10 1.15 0.97 0.77 0.64 0.54 0.47 0.40 0.32 0.26
0.36 0.35 0.35 0.37 0.43 0.53 0.65 0.66 0.64 0.64 0.65 0.68 0.80 0.88 0.94 0.98 1.06 1.12 1.16 1.27 1.38 1.44 1.42 1.35 1.30 1.24 1.17 1.12 1.07 1.03 1.10 1.21 1.27 1.18 1.20 1.15 1.07 0.94 0.77 0.65 0.55 0.46 0.40
0.22 0.24 0.21 0.22 0.27 0.34 0.39 0.40 0.47 0.52 0.59 0.65 0.75 0.80 0.84 0.80 0.84 0.92 0.91 1.06 1.20 1.34 1.37 1.39 1.31 1.21 1.15 1.12 1.08 1.08 1.14 1.29 1.36 1.38 1.36 1.28 1.19 1.04 0.89 0.77 0.65 0.57 0.53
0.09 0.14 0.14 0.16 0.20 0.22 0.26 0.24 0.29 0.42 0.53 0.60 0.66 0.72 0.79 0.82 0.77 0.73 0.73 0.80 0.91 1.01 1.13 1.24 1.28 1.19 1.13 1.10 1.15 1.22 1.21 1.28 1.41 1.37 1.25 1.35 1.30 1.20 1.03 0.84 0.82 0.78 0.67
0.06 0.08 0.08 0.13 0.17 0.13 0.15 0.14 0.24 0.45 0.51 0.53 0.52 0.65 0.77 0.83 0.86 0.88 0.77 0.75 0.77 0.80 0.86 1.00 1.12 1.11 1.10 1.10 1.11 1.18 1.24 1.26 1.19 1.26 1.18 1.28 1.30 1.19 1.04 0.96 0.98 0.88 0.81
0.03 0.07 0.08 0.14 0.14 0.09 0.10 0.13 0.19 0.36 0.45 0.43 0.45 0.56 0.71 0.83 0.86 0.88 0.83 0.89 0.87 0.78 0.73 0.78 0.95 1.02 1.02 1.13 1.21 1.28 1.36 1.32 1.30 1.28 1.18 1.20 1.18 1.07 0.99 0.97 1.02 0.90 0.82
0.02 0.06 0.09 0.10 0.07 0.04 0.06 0.10 0.18 0.35 0.44 0.44 0.41 0.49 0.65 0.75 0.84 0.85 0.82 0.92 0.94 0.76 0.68 0.76 0.78 0.84 0.92 1.03 1.19 1.29 1.35 1.32 1.32 1.32 1.15 1.01 0.99 1.02 1.03 0.97 0.94 0.92 0.83
0.02 0.03 0.05 0.06 0.05 0.06 0.05 0.05 0.12 0.23 0.32 0.40 0.41 0.46 0.66 0.72 0.75 0.71 0.73 0.94 1.04 0.91 0.67 0.65 0.70 0.81 0.87 0.99 1.20 1.31 1.47 1.43 1.25 1.23 1.13 1.00 0.99 1.06 1.17 1.09 0.92 0.83 0.78

GEFSMA_prec_meanprecacc_114.txt.gz
Total_Precipitation_Accumulation
1.12 0.98 0.93 1.10 1.06 1.04 1.05 1.05 1.01 0.88 0.76 0.61 0.58 0.55 0.58 0.55 0.53 0.48 0.62 0.59 0.72 0.94 1.02 0.92 0.76 0.65 0.62 0.62 0.72 0.84 0.87 0.81 0.91 0.95 0.94 0.92 0.88 0.74 0.58 0.41 0.33 0.23 0.21
1.00 1.00 0.87 0.92 0.99 1.10 1.25 1.23 1.06 0.98 0.88 0.74 0.74 0.72 0.69 0.64 0.63 0.51 0.60 0.62 0.53 0.60 0.77 0.94 0.94 0.84 0.77 0.72 0.75 0.83 0.86 0.78 0.78 0.86 0.96 1.04 1.03 0.85 0.61 0.41 0.35 0.29 0.26
0.85 0.97 0.94 0.91 0.92 1.10 1.27 1.33 1.23 1.14 0.95 0.86 0.82 0.79 0.71 0.72 0.72 0.61 0.60 0.65 0.55 0.46 0.59 0.82 0.98 0.98 0.88 0.86 0.85 0.88 0.86 0.78 0.75 0.77 0.84 0.86 0.85 0.79 0.65 0.54 0.45 0.42 0.39
0.91 1.03 1.06 0.97 0.95 1.12 1.28 1.37 1.42 1.39 1.24 1.11 0.99 0.88 0.80 0.87 0.81 0.69 0.67 0.70 0.72 0.61 0.60 0.62 0.77 0.95 1.00 1.01 0.92 0.83 0.78 0.69 0.62 0.60 0.61 0.59 0.61 0.63 0.61 0.60 0.59 0.61 0.58
0.92 1.06 1.20 1.20 1.19 1.25 1.29 1.30 1.35 1.31 1.28 1.23 1.10 1.02 0.92 0.92 0.89 0.76 0.76 0.82 0.85 0.82 0.73 0.55 0.53 0.55 0.76 0.96 0.95 0.86 0.80 0.68 0.57 0.50 0.48 0.44 0.44 0.50 0.53 0.58 0.60 0.64 0.61
1.14 1.10 1.21 1.23 1.25 1.38 1.38 1.48 1.59 1.44 1.29 1.33 1.28 1.16 1.03 0.93 0.85 0.84 0.89 0.94 0.94 0.88 0.84 0.71 0.63 0.42 0.48 0.70 0.85 0.88 0.87 0.80 0.70 0.55 0.48 0.40 0.37 0.37 0.41 0.46 0.48 0.49 0.52
1.28 1.29 1.30 1.29 1.29 1.32 1.37 1.52 1.76 1.65 1.48 1.39 1.52 1.43 1.19 0.99 0.90 0.88 0.88 0.98 1.02 0.99 0.97 1.01 0.83 0.63 0.44 0.41 0.47 0.66 0.78 0.87 0.89 0.76 0.63 0.51 0.40 0.35 0.35 0.37 0.39 0.43 0.43
1.25 1.18 1.33 1.42 1.35 1.42 1.49 1.63 1.81 1.86 1.69 1.55 1.75 2.02 1.70 1.36 0.99 0.88 0.87 0.86 0.97 1.03 0.98 0.91 0.86 0.80 0.64 0.54 0.36 0.39 0.52 0.68 0.83 0.84 0.78 0.65 0.49 0.37 0.36 0.35 0.37 0.42 0.45
1.49 1.42 1.48 1.62 1.54 1.54 1.58 1.63 1.66 1.96 2.02 1.86 1.85 2.22 1.92 1.70 1.60 1.12 0.85 0.79 0.98 1.09 1.08 0.97 0.87 0.94 0.91 0.75 0.58 0.35 0.31 0.40 0.62 0.79 0.85 0.81 0.65 0.49 0.39 0.35 0.38 0.42 0.45
1.70 1.59 1.58 1.62 1.64 1.68 1.61 1.51 1.64 1.96 2.29 2.24 2.09 1.92 1.71 1.58 1.76 1.60 1.09 0.84 0.91 1.03 1.12 1.02 0.93 0.96 1.03 0.96 0.83 0.55 0.29 0.25 0.45 0.70 0.86 0.89 0.78 0.61 0.50 0.43 0.43 0.44 0.46
1.71 1.56 1.51 1.54 1.60 1.69 1.68 1.72 1.86 2.12 2.34 2.47 2.39 2.13 1.83 1.62 1.34 1.46 1.44 1.22 1.01 0.92 0.93 1.02 1.08 1.03 1.02 0.95 0.95 0.80 0.45 0.25 0.29 0.60 0.86 0.99 0.93 0.76 0.63 0.55 0.48 0.45 0.44
1.54 1.51 1.49 1.45 1.40 1.47 1.57 1.73 1.96 2.07 2.23 2.41 2.40 2.13 1.92 1.76 1.57 1.48 1.36 1.40 1.38 1.11 0.93 0.92 0.97 0.99 0.99 0.95 0.90 0.96 0.71 0.41 0.26 0.35 0.57 0.85 0.96 0.92 0.81 0.73 0.67 0.62 0.54
1.34 1.36 1.37 1.31 1.21 1.20 1.31 1.48 1.69 1.75 1.86 2.04 2.10 1.99 1.88 1.72 1.66 1.70 1.64 1.54 1.43 1.14 0.96 0.83 0.81 0.86 0.86 0.90 1.00 1.06 0.83 0.62 0.39 0.29 0.32 0.45 0.63 0.81 0.93 0.96 0.94 0.89 0.80
1.17 1.11 1.14 1.14 1.11 1.10 1.12 1.21 1.31 1.38 1.48 1.65 1.71 1.74 1.64 1.61 1.66 1.64 1.61 1.71 1.58 1.32 1.01 0.71 0.65 0.72 0.74 0.78 0.99 1.04 0.73 0.66 0.52 0.38 0.30 0.30 0.35 0.47 0.66 0.82 0.98 1.12 1.10
0.94 0.90 0.97 1.06 1.12 1.04 0.98 1.04 1.10 1.14 1.25 1.36 1.49 1.66 1.62 1.57 1.60 1.65 1.68 1.70 1.67 1.50 1.21 0.83 0.67 0.60 0.68 0.73 0.95 0.87 0.73 0.70 0.62 0.51 0.38 0.29 0.24 0.27 0.38 0.50 0.63 0.73 0.81
0.85 0.85 0.88 0.89 0.90 0.88 0.91 1.00 1.09 1.17 1.18 1.22 1.33 1.48 1.58 1.62 1.69 1.69 1.72 1.73 1.66 1.56 1.40 1.04 0.80 0.65 0.72 0.69 0.82 0.70 0.78 0.90 0.71 0.55 0.44 0.36 0.31 0.28 0.28 0.33 0.37 0.37 0.38
0.66 0.68 0.66 0.70 0.81 0.80 0.80 0.89 0.95 0.98 1.07 1.16 1.20 1.21 1.38 1.53 1.65 1.69 1.71 1.70 1.71 1.63 1.41 1.22 0.95 0.77 0.81 0.81 0.83 0.74 0.79 0.83 0.73 0.65 0.55 0.45 0.38 0.36 0.31 0.30 0.31 0.28 0.27
0.44 0.51 0.55 0.54 0.70 0.86 0.88 0.91 0.92 0.89 0.94 0.98 1.03 1.12 1.22 1.26 1.35 1.49 1.61 1.61 1.66 1.68 1.55 1.42 1.16 0.95 0.89 0.87 0.96 0.99 0.97 0.94 0.90 0.95 0.88 0.70 0.56 0.49 0.42 0.35 0.32 0.29 0.27
0.33 0.38 0.51 0.50 0.54 0.71 0.83 0.83 0.78 0.78 0.82 0.85 0.90 0.95 1.01 1.11 1.21 1.24 1.35 1.45 1.52 1.55 1.58 1.48 1.39 1.25 1.08 0.97 0.98 0.95 1.05 1.19 1.15 1.14 1.18 0.99 0.78 0.65 0.56 0.49 0.43 0.35 0.30
0.36 0.35 0.35 0.37 0.43 0.53 0.65 0.66 0.64 0.64 0.65 0.69 0.80 0.89 0.95 1.00 1.08 1.15 1.18 1.31 1.43 1.51 1.49 1.43 1.37 1.31 1.23 1.17 1.12 1.07 1.13 1.26 1.33 1.23 1.22 1.17 1.08 0.95 0.79 0.67 0.56 0.49 0.43
0.22 0.24 0.21 0.22 0.27 0.35 0.39 0.40 0.47 0.52 0.59 0.65 0.75 0.80 0.84 0.81 0.85 0.92 0.92 1.09 1.24 1.40 1.44 1.46 1.37 1.27 1.20 1.18 1.14 1.13 1.18 1.33 1.40 1.43 1.41 1.30 1.20 1.05 0.91 0.78 0.66 0.58 0.55
0.09 0.14 0.14 0.16 0.20 0.22 0.27 0.25 0.29 0.42 0.53 0.60 0.67 0.72 0.79 0.82 0.78 0.73 0.73 0.80 0.93 1.04 1.18 1.31 1.34 1.24 1.17 1.14 1.20 1.27 1.27 1.32 1.44 1.39 1.29 1.39 1.33 1.22 1.05 0.85 0.83 0.79 0.70
0.06 0.09 0.09 0.13 0.17 0.14 0.16 0.15 0.25 0.45 0.51 0.53 0.52 0.65 0.77 0.83 0.86 0.88 0.77 0.75 0.77 0.80 0.87 1.03 1.17 1.17 1.14 1.13 1.14 1.21 1.28 1.30 1.22 1.28 1.22 1.32 1.34 1.22 1.07 0.97 0.99 0.90 0.82
0.03 0.07 0.08 0.15 0.14 0.09 0.11 0.14 0.21 0.37 0.45 0.43 0.45 0.56 0.71 0.83 0.86 0.88 0.83 0.90 0.88 0.78 0.74 0.79 0.98 1.06 1.05 1.15 1.23 1.32 1.40 1.36 1.33 1.32 1.22 1.25 1.23 1.11 1.02 1.00 1.05 0.93 0.84
0.02 0.06 0.09 0.11 0.08 0.05 0.07 0.11 0.20 0.36 0.44 0.44 0.41 0.49 0.65 0.75 0.84 0.85 0.83 0.93 0.94 0.77 0.68 0.76 0.80 0.86 0.94 1.06 1.22 1.33 1.40 1.37 1.37 1.35 1.17 1.05 1.04 1.07 1.07 1.01 0.98 0.95 0.85
0.02 0.03 0.06 0.07 0.06 0.07 0.06 0.07 0.15 0.25 0.34 0.41 0.41 0.46 0.66 0.72 0.75 0.71 0.73 0.94 1.04 0.91 0.68 0.65 0.71 0.82 0.89 1.01 1.22 1.34 1.52 1.49 1.31 1.28 1.17 1.03 1.03 1.11 1.22 1.13 0.95 0.86 0.80